FW5763 Weather Reports


time (UTC)temp
C
wind
direction
speed
KPH
gust
KPH
rain 1hr
cm
rain 24hr
cm
rain mn
cm
humidity
%
barometer
mb
20260505170117 13 218 4.8 4.8 0.00 0.00 0.00 75 1016.6
20260505165117 13 259 4.8 8.0 0.00 0.00 0.00 75 1016.5
20260505164137 13 232 3.2 6.4 0.00 0.00 0.00 77 1016.3
20260505163117 12 252 6.4 11.3 0.00 0.00 0.00 77 1016.3
20260505162137 12 272 3.2 6.4 0.00 0.00 0.00 78 1016.3
20260505161117 12 276 3.2 8.0 0.00 0.00 0.00 78 1016.2
20260505160137 12 321 4.8 4.8 0.00 0.00 0.00 80 1016.2
20260505153137 12 285 3.2 4.8 0.00 0.00 0.00 80 1016.3
20260505152117 12 312 1.6 3.2 0.00 0.00 0.00 80 1016.3
20260505151116 11 296 1.6 1.6 0.00 0.00 0.00 81 1016.1
20260505150115 11 344 1.6 3.2 0.00 0.00 0.00 81 1016.1
20260505140115 11 313 1.6 3.2 0.00 0.00 0.00 82 1015.8
20260505130115 11 312 1.6 3.2 0.00 0.00 0.00 82 1015.4
20260505124116 11 309 3.2 4.8 0.00 0.00 0.00 80 1015.4
20260505123116 11 306 1.6 3.2 0.00 0.00 0.00 80 1015.5
20260505122135 11 296 0.0 3.2 0.00 0.00 0.00 80 1015.5
20260505121116 11 302 0.0 3.2 0.00 0.00 0.00 80 1015.5
20260505120117 11 308 1.6 4.8 0.00 0.00 0.00 79 1015.6
20260505115116 11 298 1.6 1.6 0.00 0.00 0.00 79 1015.6
20260505114117 11 312 3.2 4.8 0.00 0.00 0.00 79 1015.5
20260505113117 11 5 0.0 1.6 0.00 0.00 0.00 79 1015.5
20260505112136 11 315 1.6 4.8 0.00 0.00 0.00 79 1015.4
20260505111116 11 328 1.6 3.2 0.00 0.00 0.00 80 1015.4
20260505110117 11 0.0 1.6 0.00 0.00 0.00 80 1015.4
20260505102116 11 347 1.6 3.2 0.00 0.00 0.00 81 1015.4
20260505101116 11 313 3.2 4.8 0.00 0.00 0.00 81 1015.3
20260505100116 11 346 0.0 3.2 0.00 0.00 0.00 81 1015.5
20260505095116 11 34 1.6 1.6 0.00 0.00 0.00 81 1015.5
20260505094116 12 307 1.6 4.8 0.00 0.00 0.00 81 1015.5
20260505093116 12 311 1.6 3.2 0.00 0.00 0.00 80 1015.6
20260505092116 12 322 1.6 3.2 0.00 0.00 0.00 80 1015.7
20260505091116 12 309 1.6 3.2 0.00 0.00 0.00 80 1015.9
20260505090115 12 2 3.2 6.4 0.00 0.00 0.00 80 1016.0
20260505085116 12 309 0.0 1.6 0.00 0.00 0.00 80 1015.9
20260505084136 12 300 1.6 3.2 0.00 0.00 0.00 80 1015.8
20260505083116 12 8 3.2 4.8 0.00 0.00 0.00 80 1016.0
20260505082115 12 298 3.2 6.4 0.00 0.00 0.00 80 1016.0
20260505081116 11 298 3.2 6.4 0.00 0.00 0.00 80 1016.1
20260505080116 11 357 0.0 3.2 0.00 0.00 0.00 81 1016.2
20260505075117 11 5 0.0 1.6 0.00 0.00 0.00 81 1016.2
20260505074116 11 5 1.6 1.6 0.00 0.00 0.00 81 1016.2
20260505073116 11 0.0 0.0 0.00 0.00 0.00 81 1016.0
20260505072116 11 0.0 0.0 0.00 0.00 0.00 81 1016.0
20260505071116 11 5 1.6 3.2 0.00 0.00 0.00 80 1015.9
20260505070116 11 22 0.0 3.2 0.00 0.00 0.00 80 1015.9
20260505065117 11 0.0 0.0 0.00 0.00 0.00 79 1015.8
20260505064116 12 340 1.6 3.2 0.00 0.00 0.00 77 1015.7
20260505063116 12 271 1.6 1.6 0.00 0.00 0.00 77 1015.7
20260505062116 12 271 0.0 3.2 0.00 0.00 0.00 76 1015.6
20260505061116 12 263 1.6 3.2 0.00 0.00 0.00 75 1015.6
20260505060116 12 0.0 0.0 0.00 0.00 0.00 75 1015.7
20260505055116 12 302 0.0 1.6 0.00 0.00 0.00 75 1015.7
20260505054116 12 286 3.2 4.8 0.00 0.00 0.00 75 1015.9
20260505053116 12 317 1.6 3.2 0.00 0.00 0.00 74 1016.0
20260505052116 13 317 0.0 1.6 0.00 0.00 0.00 73 1016.1
20260505051116 13 352 1.6 3.2 0.00 0.00 0.00 72 1016.2
20260505050116 13 0.0 0.0 0.00 0.00 0.00 71 1016.0
20260505041116 13 317 1.6 6.4 0.00 0.00 0.00 71 1015.4
20260505040136 13 308 3.2 4.8 0.00 0.00 0.00 71 1015.2
20260505035116 13 313 3.2 6.4 0.00 0.00 0.00 71 1015.2
20260505034116 13 318 1.6 3.2 0.00 0.00 0.00 69 1015.1
20260505033136 13 265 0.0 3.2 0.00 0.00 0.00 68 1015.0
20260505032116 14 247 1.6 3.2 0.00 0.00 0.00 67 1015.0
20260505031116 14 244 1.6 3.2 0.00 0.00 0.00 67 1015.1
20260505030116 14 240 3.2 4.8 0.00 0.00 0.00 65 1015.1
20260505025117 14 242 3.2 4.8 0.00 0.00 0.00 64 1015.1
20260505024116 15 237 4.8 6.4 0.00 0.00 0.00 63 1015.2
20260505023116 15 252 3.2 8.0 0.00 0.00 0.00 62 1015.0
20260505022116 15 266 4.8 6.4 0.00 0.00 0.00 60 1015.0
20260505021116 16 241 3.2 9.7 0.00 0.00 0.00 59 1014.9
20260505020116 16 223 3.2 4.8 0.00 0.00 0.00 59 1014.9
20260505015116 16 227 4.8 9.7 0.00 0.00 0.00 59 1014.9
20260505014116 16 242 6.4 8.0 0.00 0.00 0.00 57 1015.0
20260505013116 16 222 6.4 11.3 0.00 0.00 0.00 57 1015.1
20260505012116 16 249 6.4 11.3 0.00 0.00 0.00 57 1015.2
20260505011116 16 206 8.0 11.3 0.00 0.00 0.00 57 1015.2
20260505010116 16 222 6.4 11.3 0.00 0.00 0.00 56 1015.3
20260505005136 16 228 3.2 4.8 0.00 0.00 0.00 55 1015.4
20260505004116 16 228 8.0 16.1 0.00 0.00 0.00 51 1015.5
20260505003116 17 239 4.8 9.7 0.00 0.00 0.00 53 1015.4
20260505002116 17 199 8.0 24.1 0.00 0.00 0.00 53 1015.5
20260505001136 17 260 8.0 16.1 0.00 0.00 0.00 54 1015.3
20260505000116 17 244 11.3 17.7 0.00 0.00 0.00 52 1015.2
20260504235116 17 218 9.7 16.1 0.00 0.00 0.00 54 1015.3
20260504234115 17 219 6.4 14.5 0.00 0.00 0.00 55 1015.3
20260504233116 17 234 8.0 14.5 0.00 0.00 0.00 50 1015.4
20260504232116 17 213 9.7 17.7 0.00 0.00 0.00 54 1015.3
20260504231116 17 238 9.7 19.3 0.00 0.00 0.00 55 1015.4
20260504230116 16 239 9.7 16.1 0.00 0.00 0.00 58 1015.4
20260504225115 17 243 16.1 22.5 0.00 0.00 0.00 57 1015.3
20260504224116 17 217 4.8 9.7 0.00 0.00 0.00 59 1015.3
20260504223115 17 210 8.0 16.1 0.00 0.00 0.00 55 1015.3
20260504222116 17 194 8.0 14.5 0.00 0.00 0.00 55 1015.3
20260504221115 17 232 6.4 11.3 0.00 0.00 0.00 56 1015.6
20260504220116 17 249 4.8 17.7 0.00 0.00 0.00 54 1015.7
20260504215115 17 248 14.5 19.3 0.00 0.00 0.00 56 1016.1
20260504214115 17 217 9.7 16.1 0.00 0.00 0.00 60 1016.0
20260504213116 17 189 11.3 19.3 0.00 0.00 0.00 60 1016.0
20260504212116 16 256 9.7 16.1 0.00 0.00 0.00 62 1016.1
20260504211116 16 239 8.0 16.1 0.00 0.00 0.00 65 1016.3
20260504210116 16 204 9.7 16.1 0.00 0.00 0.00 66 1016.4
20260504205116 16 230 12.9 16.1 0.00 0.00 0.00 66 1016.4
20260504204116 16 219 8.0 12.9 0.00 0.00 0.00 68 1016.3
20260504203115 16 239 11.3 14.5 0.00 0.00 0.00 68 1016.4
20260504202115 16 202 11.3 22.5 0.00 0.00 0.00 71 1016.4
20260504201116 16 212 8.0 14.5 0.00 0.00 0.00 72 1016.5
20260504200116 16 193 9.7 20.9 0.00 0.00 0.00 71 1016.6
20260504195115 16 189 9.7 14.5 0.00 0.00 0.00 71 1016.6
20260504194115 15 182 4.8 16.1 0.00 0.00 0.00 73 1016.6
20260504193115 15 178 9.7 14.5 0.00 0.00 0.00 72 1016.6
20260504192136 15 192 11.3 19.3 0.00 0.00 0.00 74 1016.6
20260504191116 15 220 9.7 19.3 0.00 0.00 0.00 73 1016.7
20260504190115 15 227 11.3 17.7 0.00 0.00 0.00 73 1016.6
20260504185115 14 204 6.4 17.7 0.00 0.00 0.00 74 1016.7
20260504184115 15 215 12.9 19.3 0.00 0.00 0.00 73 1016.7
20260504183155 15 207 8.0 14.5 0.00 0.00 0.00 71 1016.7
20260504182116 15 172 3.2 6.4 0.00 0.00 0.00 73 1016.6
20260504181115 15 158 8.0 12.9 0.00 0.00 0.00 75 1016.5
20260504180115 14 179 4.8 16.1 0.00 0.00 0.00 75 1016.5
20260504175115 14 240 12.9 20.9 0.00 0.00 0.00 75 1016.4
20260504174115 14 205 4.8 12.9 0.00 0.00 0.00 77 1016.1
20260504173155 13 207 9.7 17.7 0.00 0.00 0.00 76 1016.1
20260504172115 14 139 6.4 12.9 0.00 0.00 0.00 76 1016.1
20260504171115 13 190 6.4 16.1 0.00 0.00 0.00 79 1015.9